Regional Weather Roundup
Issued by NWS

Home | Current Version | Previous Version | Text Only | Print | Product List | Glossary On
Versions: 1 2 3 4 5 6 7 8 9 10 11 12 13 14 15 16 17 18 19 20 21 22 23 24 25 26 27 28 29 30 31 32 33 34 35 36 37 38 39 40 41 42 43 44 45 46 47 48 49
000
ASUS45 KBOI 041310
RWRID
WEATHER ROUNDUP FOR IDAHO
NATIONAL WEATHER SERVICE BOISE ID
600 AM MST WED MAR 04 2015

NOTE: "FAIR" INDICATES FEW OR NO CLOUDS BELOW 12000 FEET
WITH NO SIGNIFICANT WEATHER AND/OR OBSTRUCTIONS TO VISIBILITY

IDZ012-014-041400-
SOUTHWEST IDAHO


CITY           SKY/WX    TMP DP  RH WIND       PRES   REMARKS
BOISE          CLEAR     21  13  71 CALM      30.20R
CALDWELL       CLEAR     23   9  54 W5        30.24R WCI  17
MOUNTAIN HOME  CLEAR     25  12  56 NW14      30.18R WCI  14
$$

IDZ016-017-041400-
SOUTHCENTRAL IDAHO


CITY           SKY/WX    TMP DP  RH WIND       PRES   REMARKS
BURLEY         CLEAR     19  10  68 W3        30.12R
JEROME         CLEAR     19   9  65 SW5       30.14R WCI  12
TWIN FALLS     CLEAR     22   9  57 SW8       30.13R WCI  12
$$

IDZ019>023-041400-
SOUTHEAST IDAHO


CITY           SKY/WX    TMP DP  RH WIND       PRES   REMARKS
IDAHO FALLS    CLEAR     11   6  81 N7        30.12R WCI   0
POCATELLO      CLEAR     12  10  92 W6        30.13R WCI   3
REXBURG        CLEAR      4   0  83 NE7       30.12R WCI  -8
$$

IDZ006-010-011-018-031-032-041400-
CENTRAL IDAHO MOUNTAINS


CITY           SKY/WX    TMP DP  RH WIND       PRES   REMARKS
MCCALL         CLEAR     12   5  73 CALM      30.11R
HAILEY         CLEAR     18   9  68 NW7       30.10R WCI   8
STANLEY          N/A     -3 -10  72 SE3       30.09R
SALMON         CLEAR     12   7  79 CALM      30.18R
CHALLIS        CLEAR     12   1  61 SE5       30.13R WCI   4
$$

IDZ002-004-006-007-026-041400-
NORTHERN IDAHO


CITY           SKY/WX    TMP DP  RH WIND       PRES   REMARKS
LEWISTON       CLEAR     24  16  71 CALM      30.29R
LOWELL           N/A     23  19  85 N3        30.37R
COEUR D`ALENE  CLEAR     16   7  67 CALM      30.22R
MULLAN PASS    CLEAR     11   4  73 S6        30.02S WCI   1
$$



USA.gov is the U.S. government's official web portal to all federal, state and local government web resources and services.